When you browse on this site, cookies collect data to enhance your experience and personalize the content and advertising you see.
Visit our Privacy Policy to learn more. By continuing to use the site, you agree to this use of cookies and data.
  • In Hungary
  • List of Countries
  • For 7 days
  • Water Temperature
  • Weather Map
  • News
  • Weather Widgets
  • user-avatar
    Login

    Hourly Weather Svapskie Dvory

    Today, 18 August, Sunday

    Time Temperature Precipitation Wind Pressure Humidity
    00:00 +17°C° 0 mm 2 mps 739 mmHg 97%
    01:00 +16°C° 0 mm 2 mps 739 mmHg 97%
    02:00 +16°C° 0 mm 2 mps 739 mmHg 97%
    03:00 +16°C° 0 mm 2 mps 739 mmHg 97%
    04:00 +17°C° 0 mm 2 mps 739 mmHg 97%
    05:00 +17°C° 0 mm 2 mps 740 mmHg 96%
    06:00 +17°C° 0 mm 2 mps 740 mmHg 95%
    07:00 +17°C° 0 mm 2 mps 740 mmHg 95%
    08:00 +17°C° 0 mm 2 mps 740 mmHg 94%
    09:00 +18°C° 0 mm 2 mps 740 mmHg 91%
    10:00 +18°C° 0 mm 2 mps 741 mmHg 88%
    11:00 +19°C° 0 mm 2 mps 741 mmHg 86%
    12:00 +19°C° 0 mm 3 mps 741 mmHg 84%
    13:00 +20°C° 0 mm 3 mps 741 mmHg 82%
    14:00 +20°C° 0 mm 3 mps 742 mmHg 80%
    15:00 +20°C° 0 mm 3 mps 742 mmHg 81%
    16:00 +20°C° 0 mm 3 mps 742 mmHg 81%
    17:00 +20°C° 0 mm 3 mps 743 mmHg 82%
    18:00 +19°C° 0 mm 3 mps 743 mmHg 86%
    19:00 +18°C° 0 mm 3 mps 743 mmHg 90%
    20:00 +17°C° 0 mm 2 mps 744 mmHg 94%
    21:00 +16°C° 0 mm 2 mps 744 mmHg 94%
    22:00 +16°C° 0 mm 2 mps 744 mmHg 95%
    23:00 +15°C° 0 mm 1 mps 744 mmHg 95%

    Tomorrow, 19 August, Monday

    Time Temperature Precipitation Wind Pressure Humidity
    00:00 +15°C° 0 mm 1 mps 744 mmHg 96%
    01:00 +15°C° 0 mm 2 mps 745 mmHg 96%
    02:00 +14°C° 0 mm 2 mps 745 mmHg 96%
    03:00 +14°C° 0 mm 2 mps 745 mmHg 96%
    04:00 +14°C° 0 mm 2 mps 746 mmHg 96%
    05:00 +14°C° 0 mm 2 mps 746 mmHg 96%
    06:00 +16°C° 0 mm 2 mps 746 mmHg 92%
    07:00 +17°C° 0 mm 2 mps 747 mmHg 87%
    08:00 +19°C° 0 mm 2 mps 747 mmHg 82%
    09:00 +20°C° 0 mm 2 mps 747 mmHg 76%
    10:00 +21°C° 0 mm 2 mps 748 mmHg 70%
    11:00 +24°C° 0 mm 2 mps 748 mmHg 65%
    12:00 +24°C° 0 mm 2 mps 748 mmHg 62%
    13:00 +25°C° 0 mm 2 mps 748 mmHg 59%
    14:00 +26°C° 0 mm 2 mps 748 mmHg 57%
    15:00 +26°C° 0 mm 1 mps 748 mmHg 59%
    16:00 +25°C° 0 mm 1 mps 748 mmHg 62%
    17:00 +25°C° 0 mm 1 mps 748 mmHg 64%
    18:00 +24°C° 0 mm 1 mps 748 mmHg 69%
    19:00 +22°C° 0 mm 1 mps 749 mmHg 73%
    20:00 +20°C° 0 mm 1 mps 749 mmHg 77%
    21:00 +20°C° 0 mm 1 mps 749 mmHg 79%
    22:00 +19°C° 0 mm 1 mps 749 mmHg 80%
    23:00 +17°C° 0 mm 0 mps 749 mmHg 82%

    Day after tomorrow, 20 August, Tuesday

    Time Temperature Precipitation Wind Pressure Humidity
    00:00 +17°C° 0 mm 0 mps 749 mmHg 84%
    01:00 +16°C° 0 mm 0 mps 749 mmHg 85%
    02:00 +16°C° 0 mm 0 mps 750 mmHg 86%
    03:00 +16°C° 0 mm 0 mps 750 mmHg 86%
    04:00 +16°C° 0 mm 0 mps 750 mmHg 87%
    05:00 +16°C° 0 mm 0 mps 750 mmHg 87%
    06:00 +17°C° 0 mm 0 mps 750 mmHg 82%
    07:00 +19°C° 0 mm 0 mps 750 mmHg 76%
    08:00 +23°C° 0 mm 1 mps 751 mmHg 71%
    09:00 +24°C° 0 mm 1 mps 751 mmHg 66%
    10:00 +25°C° 0 mm 1 mps 751 mmHg 61%
    11:00 +27°C° 0 mm 1 mps 751 mmHg 56%
    12:00 +27°C° 0 mm 1 mps 751 mmHg 54%
    13:00 +28°C° 0 mm 1 mps 751 mmHg 52%
    14:00 +28°C° 0 mm 1 mps 750 mmHg 49%
    15:00 +28°C° 0 mm 1 mps 750 mmHg 53%
    16:00 +28°C° 0 mm 1 mps 750 mmHg 56%
    17:00 +28°C° 0 mm 1 mps 750 mmHg 60%
    18:00 +24°C° 0 mm 0 mps 750 mmHg 63%
    19:00 +22°C° 0 mm 0 mps 750 mmHg 67%
    20:00 +20°C° 0 mm 0 mps 750 mmHg 70%
    21:00 +20°C° 0 mm 0 mps 751 mmHg 71%
    22:00 +20°C° 0 mm 0 mps 751 mmHg 73%
    23:00 +19°C° 0 mm 0 mps 751 mmHg 74%

    21 August, Wednesday

    Time Temperature Precipitation Wind Pressure Humidity
    00:00 +19°C° 0 mm 0 mps 751 mmHg 75%
    01:00 +19°C° 0 mm 0 mps 751 mmHg 77%
    02:00 +18°C° 0 mm 0 mps 751 mmHg 78%
    03:00 +18°C° 0 mm 0 mps 751 mmHg 79%
    04:00 +18°C° 0 mm 0 mps 751 mmHg 80%
    05:00 +18°C° 0 mm 0 mps 751 mmHg 81%
    06:00 +21°C° 0 mm 1 mps 751 mmHg 76%
    07:00 +23°C° 0 mm 1 mps 751 mmHg 72%
    08:00 +25°C° 0 mm 1 mps 751 mmHg 68%
    09:00 +26°C° 0 mm 2 mps 751 mmHg 64%
    10:00 +27°C° 0 mm 2 mps 751 mmHg 61%
    11:00 +28°C° 0 mm 2 mps 751 mmHg 57%
    12:00 +29°C° 0 mm 3 mps 750 mmHg 55%
    13:00 +29°C° 0 mm 3 mps 750 mmHg 53%
    14:00 +30°C° 0 mm 3 mps 750 mmHg 50%
    15:00 +29°C° 0 mm 3 mps 750 mmHg 54%
    16:00 +29°C° 0 mm 2 mps 749 mmHg 57%
    17:00 +28°C° 0 mm 2 mps 749 mmHg 60%
    18:00 +26°C° 0 mm 2 mps 749 mmHg 64%
    19:00 +25°C° 0 mm 2 mps 749 mmHg 69%
    20:00 +23°C° 0 mm 2 mps 749 mmHg 73%
    21:00 +22°C° 0 mm 1 mps 749 mmHg 74%
    22:00 +22°C° 0 mm 1 mps 749 mmHg 75%
    23:00 +21°C° 0 mm 1 mps 749 mmHg 76%

    22 August, Thursday

    Time Temperature Precipitation Wind Pressure Humidity
    00:00 +21°C° 0 mm 1 mps 748 mmHg 77%
    01:00 +21°C° 0 mm 1 mps 748 mmHg 77%
    02:00 +20°C° 0 mm 1 mps 748 mmHg 78%
    03:00 +20°C° 0 mm 1 mps 748 mmHg 79%
    04:00 +20°C° 0 mm 1 mps 748 mmHg 79%
    05:00 +20°C° 0 mm 1 mps 747 mmHg 80%
    06:00 +21°C° 0 mm 1 mps 747 mmHg 75%
    07:00 +23°C° 0 mm 1 mps 747 mmHg 70%
    08:00 +25°C° 0 mm 1 mps 747 mmHg 65%
    09:00 +26°C° 0 mm 1 mps 747 mmHg 61%
    10:00 +27°C° 0 mm 1 mps 747 mmHg 57%
    11:00 +28°C° 0 mm 1 mps 747 mmHg 52%
    12:00 +29°C° 0 mm 2 mps 747 mmHg 51%
    13:00 +29°C° 0 mm 2 mps 747 mmHg 49%
    14:00 +30°C° 0 mm 2 mps 747 mmHg 47%
    15:00 +29°C° 0 mm 2 mps 747 mmHg 51%
    16:00 +29°C° 0 mm 2 mps 747 mmHg 55%
    17:00 +28°C° 0 mm 2 mps 747 mmHg 59%
    18:00 +26°C° 0 mm 2 mps 747 mmHg 67%
    19:00 +24°C° 0 mm 3 mps 747 mmHg 74%
    20:00 +22°C° 0 mm 4 mps 748 mmHg 82%
    21:00 +21°C° 0 mm 4 mps 748 mmHg 84%
    22:00 +20°C° 0 mm 4 mps 748 mmHg 87%
    23:00 +19°C° 0 mm 5 mps 748 mmHg 90%

    23 August, Friday

    Time Temperature Precipitation Wind Pressure Humidity
    00:00 +19°C° 0 mm 4 mps 748 mmHg 89%
    01:00 +18°C° 0 mm 4 mps 748 mmHg 89%
    02:00 +18°C° 0 mm 4 mps 748 mmHg 88%
    03:00 +18°C° 0 mm 4 mps 748 mmHg 86%
    04:00 +18°C° 0 mm 4 mps 748 mmHg 85%
    05:00 +18°C° 0 mm 4 mps 748 mmHg 83%
    06:00 +18°C° 0 mm 4 mps 749 mmHg 83%
    07:00 +17°C° 0 mm 5 mps 749 mmHg 82%
    08:00 +19°C° 0 mm 5 mps 749 mmHg 82%
    09:00 +19°C° 0 mm 5 mps 749 mmHg 79%
    10:00 +20°C° 0 mm 5 mps 749 mmHg 77%
    11:00 +20°C° 0 mm 5 mps 749 mmHg 75%
    12:00 +21°C° 0 mm 5 mps 749 mmHg 71%
    13:00 +21°C° 0 mm 5 mps 749 mmHg 67%
    14:00 +22°C° 0 mm 5 mps 749 mmHg 64%
    15:00 +22°C° 0 mm 4 mps 749 mmHg 65%
    16:00 +22°C° 0 mm 4 mps 749 mmHg 66%
    17:00 +21°C° 0 mm 3 mps 749 mmHg 67%
    18:00 +20°C° 0 mm 3 mps 749 mmHg 71%
    19:00 +18°C° 0 mm 3 mps 749 mmHg 76%
    20:00 +17°C° 0 mm 2 mps 749 mmHg 81%
    21:00 +16°C° 0 mm 2 mps 750 mmHg 81%
    22:00 +16°C° 0 mm 3 mps 750 mmHg 81%
    23:00 +14°C° 0 mm 3 mps 750 mmHg 81%
    Show more